Temp
60 60 60 58 56 55 64 82 78 91 93 78 83 79 84 62 86 89 85 85 83 83 85 83 84 84 90 98 96 89 93 90 81 86 95 97 94 89 90 81 76 84 82 81
61 60 60 58 56 55 71 77 84 93 91 74 80 85 82 84 84 86 85 83 87 88 84 78 85 88 96 96 94 90 93 84 77 81 90 94 88 91 93 93 89 80 77 81
61 61 60 58 57 56 66 76 76 84 84 86 82 81 80 80 87 85 87 85 88 84 82 87 82 86 92 94 94 77 89 89 82 77 81 89 83 87 91 91 83 82 84 86
61 61 60 60 58 57 65 78 78 78 76 80 82 84 81 78 79 86 87 82 83 82 79 82 83 88 90 92 79 89 92 81 86 88 90 91 88 87 88 86 88 82 86 85
60 60 61 60 58 56 70 74 75 79 79 82 80 70 78 77 81 82 81 80 86 86 80 83 81 88 89 87 90 88 94 81 85 82 88 89 86 89 89 89 89 89 89 88
60 60 61 61 59 58 77 83 82 75 70 79 78 79 80 80 82 83 86 84 83 81 85 90 91 93 93 92 88 88 88 85 82 76 86 86 79 86 89 90 93 92 84 91
60 60 60 61 60 59 71 77 75 72 72 78 78 80 80 79 80 78 84 84 81 88 94 93 94 94 93 93 93 96 87 84 84 78 82 68 87 97 95 91 93 95 94 95
60 60 60 61 60 59 69 73 74 73 70 78 78 78 78 81 81 79 81 86 91 94 89 82 79 82 83 86 91 93 94 88 80 75 76 82 87 91 92 89 87 96 95 95
60 60 60 61 60 58 67 72 76 72 70 74 78 76 79 77 79 81 84 90 95 91 84 81 70 71 76 76 82 93 91 91 81 67 71 69 85 95 100 97 81 95 96 95
59 60 60 61 61 58 65 68 75 72 68 78 79 75 75 83 81 78 84 84 84 91 80 76 76 66 79 70 73 77 81 81 78 77 57 77 88 93 97 77 79 92 93 91
59 59 60 61 61 60 63 66 73 65 67 75 78 80 76 79 79 75 82 80 84 82 76 77 79 73 75 64 65 62 76 75 77 79 73 67 88 91 83 86 92 91 91 91
59 59 59 60 60 60 59 64 73 72 61 71 78 80 82 82 82 80 82 79 78 83 78 81 83 69 62 53 48 72 60 50 58 77 75 67 74 82 94 95 90 90 90 93
58 59 59 59 59 59 59 66 70 66 61 70 76 77 86 90 88 90 76 82 86 82 83 79 79 68 57 52 59 77 75 71 77 81 78 66 80 89 93 94 91 92 94 93
58 59 59 59 59 59 58 64 70 63 59 61 78 90 83 89 91 88 87 85 88 87 84 79 78 75 83 78 79 79 81 64 70 80 86 88 90 88 90 90 92 91 92 93
57 58 58 59 59 58 59 64 65 68 56 53 67 78 85 89 89 84 85 84 82 80 77 77 75 83 81 82 81 78 87 82 78 78 84 81 83 89 91 89 88 89 88 89
57 57 58 58 58 57 57 53 63 68 62 52 60 85 81 85 85 83 82 82 81 80 78 77 81 86 79 74 74 84 89 91 91 84 88 87 88 90 92 89 90 91 90 91
57 57 57 57 56 57 54 57 60 61 61 51 58 71 82 84 83 82 82 84 81 80 78 76 78 81 79 74 70 81 86 88 88 90 88 84 87 86 93 92 93 82 91 92
57 57 57 55 55 56 55 63 60 65 56 61 58 68 76 84 77 76 83 78 79 79 77 80 78 81 79 70 77 82 85 86 87 88 90 90 92 91 91 92 91 89 89 90
56 56 55 56 54 52 58 60 59 65 57 49 61 66 61 84 79 82 79 80 71 80 74 75 79 75 70 76 77 80 83 83 84 88 89 88 87 87 89 89 89 87 88 89
55 56 53 50 54 59 58 54 50 50 51 51 52 73 68 81 78 76 75 77 73 70 75 81 73 74 81 83 84 83 84 84 85 81 79 83 83 86 87 87 90 90 90 90
54 51 51 55 59 54 52 48 47 48 46 52 57 66 66 81 71 67 77 68 75 66 73 72 72 72 78 84 84 83 83 82 83 83 83 85 86 87 88 88 89 90 90 88
55 55 56 55 52 49 47 46 48 47 49 64 63 69 72 74 79 72 67 70 71 63 80 72 68 77 79 81 82 82 82 83 83 84 84 84 85 87 88 89 89 89 88 87
55 52 50 49 48 41 43 42 46 49 62 66 67 68 73 73 75 71 72 66 67 79 71 68 74 75 78 79 81 81 83 83 83 83 85 86 86 87 88 88 90 89 86 85
49 47 39 44 44 48 52 55 62 67 68 68 68 64 68 72 68 71 64 72 75 66 62 66 76 74 77 79 81 80 81 82 82 82 84 84 85 87 88 90 89 87 84 82
47 48 41 46 61 65 65 68 65 64 65 59 58 60 59 67 66 70 69 65 61 65 67 75 75 76 76 77 78 80 81 82 82 83 83 83 85 86 86 87 89 86 84 81
48 48 47 57 58 61 64 63 61 66 60 62 61 55 53 57 65 66 64 64 63 70 77 79 75 73 74 75 77 78 80 80 82 83 82 83 83 84 86 87 87 86 84 81
47 47 60 63 61 61 63 62 64 65 56 50 51 48 50 58 57 63 70 66 73 75 78 79 75 72 72 74 75 76 77 78 79 80 81 81 83 85 84 82 84 87 84 82
MSLP
1017.97 1017.72 1017.47 1017.13 1016.65 1015.55 1013.24 1011.20 1007.31 1007.54 1007.78 1006.84 1004.88 1003.12 1001.96 1001.86 1001.19 1001.18 1001.04 1000.41 999.83 998.56 997.50 996.99 996.53 995.93 995.71 995.77 996.32 995.97 996.76 995.95 995.22 994.58 995.22 995.74 995.55 995.68 995.66 994.87 994.93 994.57 994.34 993.97
1017.73 1017.54 1017.35 1017.10 1016.82 1016.52 1014.72 1010.45 1007.03 1006.92 1006.91 1004.66 1002.87 1002.34 1002.06 1001.98 1001.59 1000.90 1000.60 1000.18 999.64 998.85 998.25 997.82 996.80 996.12 995.96 996.14 996.41 996.15 996.71 996.39 995.38 994.80 994.65 995.18 995.15 995.04 994.80 994.77 993.94 993.76 993.61 993.34
1017.54 1017.37 1017.21 1017.05 1016.87 1016.70 1015.91 1011.10 1006.65 1005.77 1006.20 1004.60 1003.07 1001.51 1001.66 1001.40 1001.52 1001.29 1000.62 1000.33 999.91 999.52 998.90 998.29 997.13 996.33 996.27 996.90 996.90 997.17 996.94 996.09 995.35 994.26 994.11 994.15 994.69 994.84 994.74 994.20 993.51 993.17 993.05 993.08
1017.31 1017.14 1017.04 1016.89 1016.70 1016.57 1016.08 1010.71 1006.76 1006.28 1004.40 1003.84 1003.08 1002.07 1001.58 1001.25 1000.89 1001.14 1000.79 1000.56 1000.33 999.50 998.43 997.65 996.93 996.67 995.94 996.86 997.10 997.25 997.03 995.99 995.51 994.88 994.24 993.92 994.02 994.28 994.64 994.34 993.99 993.36 992.83 993.24
1017.16 1016.93 1016.82 1016.70 1016.50 1016.19 1014.82 1010.38 1008.51 1007.10 1005.50 1004.03 1003.40 1002.58 1002.27 1001.60 1000.99 1000.98 1000.39 1000.45 999.27 999.26 998.97 997.80 996.70 996.36 995.74 995.49 996.48 996.66 996.37 995.91 995.45 994.92 994.49 994.29 993.72 993.59 993.74 994.00 994.04 993.83 993.57 993.29
1017.05 1016.79 1016.67 1016.59 1016.44 1016.23 1012.83 1010.75 1010.01 1009.15 1006.13 1004.58 1003.53 1002.46 1002.11 1001.64 1001.48 1001.38 1000.91 1000.25 999.76 999.76 999.29 998.70 998.18 997.70 996.98 996.77 995.02 995.30 995.71 995.45 994.94 994.51 994.31 994.05 993.54 993.38 992.99 993.19 993.35 993.21 993.38 993.61
1016.84 1016.62 1016.45 1016.46 1016.41 1016.28 1014.73 1012.43 1011.70 1009.26 1006.38 1004.64 1003.52 1003.01 1002.65 1002.26 1002.21 1002.06 1001.12 1001.26 1000.81 1000.19 1000.08 999.70 998.92 998.07 997.23 996.39 995.59 994.98 994.92 995.27 995.06 994.59 994.26 993.61 993.11 992.76 993.12 992.92 993.09 993.33 993.55 993.84
1016.63 1016.45 1016.25 1016.25 1016.28 1016.21 1015.19 1013.78 1012.11 1009.79 1007.40 1005.24 1004.34 1003.95 1003.58 1003.30 1002.92 1002.86 1002.35 1001.56 1000.97 1000.64 1000.31 999.37 998.15 997.17 996.96 996.43 996.04 995.17 994.84 994.94 994.99 994.74 994.17 993.71 993.01 992.49 992.15 992.69 993.07 993.67 993.57 993.86
1016.44 1016.29 1016.08 1016.11 1016.16 1016.18 1015.74 1014.09 1013.19 1011.79 1009.13 1006.37 1005.54 1004.80 1004.17 1003.40 1002.42 1001.78 1001.36 1001.29 1001.15 1000.85 1000.05 998.47 997.40 996.71 996.49 996.37 996.04 995.90 995.42 995.10 995.77 996.17 994.79 993.56 992.81 992.20 992.88 993.20 993.58 993.89 994.28 994.58
1016.27 1016.10 1015.91 1015.92 1016.01 1016.10 1015.79 1014.49 1013.79 1012.54 1010.12 1007.55 1006.61 1005.61 1004.87 1003.56 1003.26 1002.31 1001.09 1001.11 1001.06 1000.35 999.61 998.21 997.09 998.64 997.67 997.80 996.98 996.52 996.17 996.21 995.63 995.84 997.21 995.52 994.18 994.20 993.99 994.25 995.42 995.71 996.01 996.32
1016.12 1015.94 1015.81 1015.68 1015.88 1015.99 1015.98 1014.60 1013.99 1013.73 1011.42 1008.47 1007.75 1006.81 1006.09 1005.19 1004.50 1003.11 1002.10 1002.00 1001.02 1000.20 999.51 998.61 997.24 998.13 999.13 999.36 1001.02 1000.32 998.60 998.45 997.08 996.47 996.50 997.40 996.17 995.91 995.09 995.58 995.77 996.50 996.96 996.95
1015.93 1015.82 1015.69 1015.52 1015.67 1015.89 1016.08 1014.76 1014.05 1014.06 1013.43 1009.84 1008.70 1007.96 1007.24 1006.41 1005.64 1004.84 1003.65 1002.71 1002.22 1000.74 1000.26 999.17 998.36 999.78 1001.47 1002.87 1001.87 1000.00 1000.57 1001.69 1002.35 997.33 998.28 1000.14 999.86 998.12 994.82 996.36 996.66 997.04 997.47 997.35
1015.67 1015.53 1015.47 1015.36 1015.41 1015.68 1015.75 1014.80 1014.52 1014.41 1013.14 1009.60 1007.34 1005.95 1005.21 1005.56 1005.64 1005.70 1004.77 1003.56 1002.72 1002.42 1002.55 1001.45 1000.09 999.79 1002.60 1002.92 1002.53 999.52 999.58 1000.51 999.27 997.54 998.33 999.36 999.04 998.09 997.65 997.53 997.60 997.60 997.76 997.85
1015.34 1015.22 1015.16 1015.14 1015.11 1015.51 1015.74 1015.01 1014.57 1014.84 1013.99 1010.78 1005.30 1004.66 1004.59 1004.67 1004.42 1004.70 1004.91 1004.35 1003.67 1003.32 1002.79 1001.96 1000.97 999.90 999.01 999.56 998.87 998.48 998.08 1000.90 999.19 998.15 997.59 997.68 996.74 997.94 998.03 998.20 998.20 998.20 998.29 998.18
1015.01 1014.88 1014.76 1014.72 1014.89 1015.23 1015.59 1015.07 1014.85 1014.58 1014.77 1012.34 1008.22 1006.33 1004.51 1004.12 1003.94 1004.27 1004.55 1004.54 1004.24 1003.69 1002.88 1001.87 1001.08 1000.54 1000.21 999.87 999.30 998.65 998.00 997.66 997.92 997.32 997.62 998.45 998.14 998.23 998.67 998.47 998.55 998.68 998.75 998.58
1014.78 1014.53 1014.38 1014.42 1014.61 1015.16 1015.60 1015.15 1014.32 1014.28 1014.83 1013.82 1009.66 1004.60 1003.63 1003.30 1003.43 1003.70 1003.77 1003.94 1003.89 1003.68 1002.91 1002.01 1001.20 1000.64 1001.00 999.94 998.47 997.95 997.67 997.38 997.27 997.62 998.09 998.34 998.40 998.41 998.40 998.48 998.68 998.89 998.90 998.72
1014.51 1014.29 1014.07 1014.15 1014.43 1014.86 1015.09 1014.71 1014.36 1014.33 1014.95 1013.87 1010.04 1004.86 1003.01 1003.22 1003.14 1003.20 1003.21 1003.41 1003.28 1003.04 1002.57 1002.15 1001.52 1000.66 1000.77 1000.23 999.21 998.81 998.49 998.31 998.28 998.35 998.56 998.54 998.62 998.25 998.01 998.30 998.22 998.93 998.86 998.79
1014.16 1014.06 1013.92 1014.09 1014.50 1014.83 1014.83 1014.32 1014.54 1014.41 1014.55 1012.98 1009.92 1004.95 1002.68 1002.79 1002.22 1002.11 1002.46 1002.48 1002.70 1002.42 1002.12 1001.33 1000.80 1000.53 1000.24 999.69 999.47 999.17 998.97 998.85 998.65 998.63 998.48 998.28 998.14 998.09 998.08 998.17 998.35 998.39 998.41 998.49
1013.89 1013.92 1014.08 1014.49 1014.70 1014.56 1014.00 1014.17 1014.48 1014.39 1014.63 1012.91 1009.34 1004.88 1002.79 1002.20 1001.78 1001.35 1002.16 1001.84 1001.75 1001.68 1001.01 1000.73 1000.33 999.41 998.66 998.79 999.14 998.97 998.79 998.69 998.57 998.34 998.14 998.31 998.17 998.03 997.84 997.91 998.04 998.19 998.10 998.27
1013.91 1014.10 1014.20 1014.04 1013.92 1014.02 1014.39 1014.69 1014.72 1014.45 1013.83 1012.98 1009.89 1005.52 1003.19 1001.82 1000.97 1000.92 1001.34 1001.23 1000.65 999.45 999.55 999.70 999.16 998.27 998.10 998.15 998.39 998.54 998.70 998.82 998.89 998.68 998.57 998.42 998.13 997.85 997.58 997.59 997.70 997.77 997.93 998.16
1014.03 1013.86 1013.74 1013.80 1013.89 1014.11 1013.93 1013.55 1013.40 1012.88 1011.95 1010.58 1008.34 1006.25 1003.98 1002.18 1001.51 1001.09 1000.38 999.99 999.42 998.34 997.88 998.07 997.35 997.15 997.03 997.33 997.60 998.40 998.84 999.15 999.10 998.93 998.67 998.42 997.92 997.39 997.20 997.42 997.54 997.67 997.94 998.47
1013.51 1013.51 1013.52 1013.73 1013.76 1013.30 1012.80 1011.88 1011.55 1010.77 1009.08 1006.59 1005.24 1003.83 1003.45 1002.85 1002.22 1001.67 1000.56 999.40 998.70 997.42 996.59 996.68 996.29 996.03 996.62 997.16 997.76 998.43 998.83 998.86 998.67 998.35 997.98 997.85 997.84 997.72 997.46 997.19 997.27 997.66 998.21 998.99
1013.53 1013.43 1013.04 1012.82 1012.48 1011.71 1010.61 1009.35 1008.62 1007.65 1006.20 1004.65 1003.93 1002.95 1002.76 1002.85 1002.70 1001.79 1000.20 998.92 997.93 997.30 996.44 996.07 995.69 996.48 997.22 997.59 998.04 998.46 998.65 998.62 998.42 998.04 997.55 997.40 997.36 997.47 997.39 997.21 997.37 997.92 998.69 999.54
1013.01 1012.56 1012.03 1011.30 1010.00 1008.79 1007.40 1006.60 1005.47 1005.11 1004.26 1003.98 1003.85 1003.38 1002.56 1002.26 1001.95 1000.77 999.59 998.60 997.37 996.40 995.84 995.40 995.35 996.66 997.32 997.72 998.33 998.60 998.40 998.39 998.27 998.06 997.69 997.29 997.17 997.11 997.21 997.32 997.56 998.23 998.94 999.96
1012.29 1011.64 1010.20 1008.78 1007.11 1005.81 1005.30 1005.07 1004.81 1004.97 1004.73 1004.93 1004.20 1003.65 1003.56 1001.59 1000.96 999.92 998.66 997.30 996.26 995.84 995.22 994.86 995.27 996.59 997.57 997.94 998.40 998.59 998.54 998.44 998.32 998.13 997.90 997.60 997.19 997.14 997.22 997.58 997.66 998.45 999.20 1000.07
1011.40 1010.27 1008.67 1007.22 1006.05 1005.02 1004.57 1004.55 1004.75 1004.92 1005.77 1005.52 1005.10 1004.36 1003.31 1001.72 999.96 998.36 997.38 996.31 995.25 994.91 994.73 995.48 996.84 997.61 998.09 998.50 998.73 998.90 998.89 998.80 998.48 998.29 998.20 997.98 997.72 997.42 997.34 997.60 997.87 998.42 999.14 999.95
1009.87 1008.55 1007.39 1005.78 1005.03 1004.30 1004.26 1004.61 1004.96 1006.10 1006.58 1006.71 1006.47 1005.43 1004.08 1002.84 1000.45 998.44 996.93 996.03 995.24 995.22 995.33 996.15 997.31 998.18 998.65 998.86 999.05 999.13 999.11 998.98 998.87 998.75 998.61 998.35 998.15 997.81 997.67 997.67 997.99 998.29 999.04 999.77
Wind_Speed
9 9 11 11 13 21 12 9 8 8 7 9 11 13 17 4 9 8 10 7 10 15 7 9 15 10 15 16 14 19 17 11 12 14 18 20 19 21 19 12 11 11 6 10
9 9 10 9 9 11 9 7 7 7 9 10 11 14 6 8 13 10 9 10 9 5 9 7 14 10 11 6 12 12 15 11 14 16 18 16 19 24 19 20 18 14 7 1
9 9 9 8 8 7 7 6 6 7 8 14 14 8 9 13 12 14 11 11 11 9 12 12 9 8 7 7 13 6 11 17 13 14 15 16 16 18 20 20 14 11 9 15
9 9 8 8 8 6 7 7 5 7 7 12 13 12 6 7 10 11 9 13 15 17 11 13 14 14 9 9 6 9 17 18 17 19 17 13 18 20 22 21 19 20 14 3
9 8 7 7 8 9 7 7 4 6 12 8 10 5 11 10 10 7 11 14 14 12 11 17 10 14 13 12 9 14 17 17 17 21 12 17 17 17 21 23 19 17 16 16
9 9 7 7 7 7 6 3 7 6 9 13 10 11 14 11 7 7 15 9 8 6 11 11 14 13 14 13 5 13 17 15 16 14 18 16 17 16 16 19 22 20 15 12
9 9 7 6 6 6 8 8 8 8 11 10 10 14 5 9 6 12 6 3 9 13 9 13 17 18 18 15 13 12 10 16 13 12 16 17 11 16 17 15 13 13 11 13
9 9 7 7 6 7 8 7 6 8 11 12 8 9 9 12 8 11 15 15 12 9 13 14 16 12 16 17 14 16 13 10 12 12 12 9 20 4 16 11 7 10 11 6
9 9 7 7 6 6 7 5 6 7 8 9 10 9 9 10 12 13 12 11 10 9 11 13 19 14 14 17 19 12 15 12 8 8 17 15 13 19 14 4 8 5 9 8
9 9 8 8 7 6 6 4 8 6 10 14 13 9 10 7 8 10 6 3 9 15 10 14 15 18 3 10 18 15 14 10 13 13 2 14 15 9 5 12 5 7 8 7
9 9 8 9 8 7 5 4 4 5 7 15 17 15 11 9 8 10 8 7 12 10 11 14 16 2 6 5 18 20 12 8 12 13 6 8 20 4 7 7 6 7 7 7
9 9 8 7 10 8 8 4 2 4 6 12 18 16 17 17 18 13 9 11 7 7 8 9 11 4 4 5 6 14 2 10 16 4 5 13 2 29 13 9 6 6 7 9
9 8 9 8 11 10 11 4 4 3 5 12 15 14 17 19 19 15 11 9 10 5 5 8 9 2 4 3 17 20 2 3 11 7 11 11 16 10 7 8 7 7 7 8
9 9 9 9 11 11 10 5 3 1 4 7 3 3 6 6 11 16 16 17 9 8 7 9 9 10 6 9 12 9 4 18 19 10 10 14 2 7 7 8 7 7 7 7
10 9 9 9 10 11 6 7 4 5 3 5 10 22 23 19 11 9 12 15 15 9 10 9 9 8 8 8 10 10 12 7 8 9 7 6 8 6 10 7 7 5 5 6
10 9 8 8 11 12 2 3 6 9 4 3 7 5 7 5 5 10 16 11 10 10 10 8 10 16 5 8 11 9 13 12 11 8 9 9 11 12 12 11 8 5 5 4
9 9 7 7 12 6 3 3 4 7 4 3 6 7 9 7 8 8 7 13 8 8 10 11 11 11 5 10 14 15 14 11 12 9 11 13 13 12 10 11 7 5 8 6
7 7 5 7 11 4 3 5 4 6 2 5 6 6 5 10 7 6 6 8 8 8 9 10 12 11 11 11 14 15 14 14 14 15 14 14 14 13 11 12 8 11 10 7
2 5 13 4 1 3 1 10 7 1 2 4 6 10 5 6 9 5 5 6 8 6 11 13 11 11 13 11 15 14 13 13 14 14 10 9 13 12 12 13 13 12 11 8
10 2 1 3 3 18 12 2 3 3 4 4 6 11 10 5 6 7 6 6 8 7 9 8 15 14 16 17 18 15 13 11 13 15 16 17 15 14 11 11 13 12 11 7
2 3 2 3 12 2 3 4 4 4 4 6 7 14 13 10 8 5 7 5 8 11 9 13 9 12 16 20 14 4 6 8 11 13 15 16 17 13 9 10 11 10 8 6
2 1 3 2 3 3 4 4 4 6 6 8 11 11 13 9 7 6 3 9 5 7 6 11 14 10 9 9 8 6 7 7 10 12 14 15 16 14 13 9 8 7 5 6
1 2 4 4 4 6 6 8 5 5 6 6 6 6 4 7 4 7 6 6 10 5 8 11 11 10 8 8 7 6 5 5 5 7 7 8 12 13 13 10 5 5 7 10
3 5 5 6 6 7 8 9 9 9 3 5 8 7 6 7 10 7 7 10 7 14 13 17 9 13 12 10 6 5 6 3 3 4 5 5 8 11 10 9 7 7 9 11
4 4 6 8 10 9 5 11 4 2 5 6 5 2 5 8 6 7 6 6 6 7 14 11 9 13 10 9 7 6 4 3 4 5 6 7 4 8 8 8 8 9 10 11
4 6 4 7 8 10 9 7 6 4 1 5 3 3 4 4 6 10 14 10 8 10 4 9 9 9 8 6 5 3 3 4 5 5 6 6 5 6 8 8 7 9 11 13
6 5 10 10 7 6 4 2 3 3 2 2 2 5 5 6 6 15 10 14 10 3 6 7 10 9 8 6 4 4 3 4 5 5 6 6 5 5 5 9 9 9 11 11
Wind_Direction
298 305 316 325 334 328 299 282 248 133 183 212 222 234 247 33 277 200 246 288 278 289 266 257 250 231 234 200 235 206 227 251 232 231 210 220 240 215 240 242 218 266 322 304
293 302 316 325 339 3 318 273 297 146 222 236 224 234 261 247 255 242 234 241 239 291 275 259 269 232 245 184 228 230 210 230 257 237 200 217 227 239 229 247 258 261 270 28
303 296 311 321 327 343 295 274 237 161 210 267 291 246 225 228 200 267 274 262 273 276 249 242 276 236 161 243 239 16 249 238 235 250 236 198 219 242 243 255 257 249 222 255
308 288 297 312 311 327 285 241 274 7 188 223 238 264 289 238 241 199 237 235 244 260 252 251 213 261 152 190 166 226 228 245 245 257 270 241 234 215 232 241 254 264 277 313
309 292 285 296 306 312 257 299 335 342 280 320 286 215 251 246 255 248 232 228 249 218 248 274 317 240 226 189 170 218 217 241 241 250 252 249 255 254 215 232 239 255 275 281
311 303 275 287 306 319 288 45 259 265 280 257 237 235 224 264 256 308 277 320 279 238 264 321 333 314 306 279 256 182 218 238 246 238 231 240 235 243 248 226 233 233 245 270
317 313 262 261 278 303 303 322 298 272 261 250 255 256 291 276 243 266 309 243 266 267 332 302 262 250 253 257 267 250 213 231 245 252 227 223 252 223 225 246 245 239 260 288
314 311 262 244 251 279 290 299 286 288 277 284 270 267 277 266 251 234 247 250 262 289 277 267 248 220 227 226 230 250 244 214 226 247 242 234 244 194 199 219 208 242 270 336
312 310 275 238 236 262 281 289 300 277 290 261 333 307 287 275 249 236 231 234 244 277 262 254 241 232 212 204 217 220 247 246 293 334 267 231 247 184 202 239 246 19 10 24
303 307 305 226 222 226 271 299 300 278 276 276 286 253 305 298 278 286 309 256 266 230 253 257 247 214 257 266 200 221 217 237 236 194 136 291 86 41 117 201 79 37 22 24
295 293 294 227 210 204 240 289 295 307 290 294 297 287 282 269 244 277 39 273 217 265 237 254 262 188 322 73 266 323 258 246 222 248 200 241 359 190 270 82 88 34 8 7
299 292 287 261 202 200 212 276 316 321 252 296 320 287 282 275 280 299 307 305 321 346 296 252 286 29 63 349 281 314 315 123 277 44 43 346 87 285 42 27 29 24 357 360
296 287 282 270 203 195 212 295 330 289 271 271 238 240 244 226 237 253 267 258 259 263 343 312 303 47 137 159 232 218 55 44 294 292 144 150 231 288 6 4 3 355 336 337
294 282 279 263 212 196 204 243 275 309 285 283 303 138 234 238 243 220 236 266 278 287 287 285 289 296 339 293 334 306 76 143 231 294 287 287 149 72 29 14 356 359 335 321
290 284 278 243 210 182 206 263 243 234 272 309 311 311 269 244 232 212 229 238 249 263 268 256 260 280 275 275 282 284 287 289 278 289 22 339 329 16 348 338 348 358 350 347
289 285 280 226 189 150 173 255 205 230 176 278 281 357 278 227 216 240 224 228 229 239 250 258 270 282 291 277 275 274 288 294 292 279 310 312 300 301 297 296 277 300 303 330
290 286 269 213 166 166 216 359 33 139 142 241 269 256 170 229 225 219 218 213 225 229 233 244 264 261 212 259 266 280 290 286 288 293 283 278 279 280 280 296 270 182 256 281
292 292 228 173 138 49 276 198 176 148 230 262 268 263 219 174 205 196 204 201 207 216 245 233 234 238 229 253 263 264 265 271 274 266 264 271 269 268 275 279 239 241 241 248
260 118 114 100 156 189 205 116 138 274 259 280 267 271 28 161 245 189 166 213 208 234 219 236 246 233 234 232 243 259 267 262 261 252 255 276 281 277 267 251 236 243 251 232
143 157 191 189 201 109 125 121 163 194 197 224 258 283 272 232 227 180 208 189 233 210 213 233 225 244 248 231 241 243 260 289 289 277 263 260 258 263 266 253 239 241 250 246
211 190 205 51 129 158 199 205 206 174 222 210 228 240 262 264 267 303 216 210 226 231 223 207 223 228 235 228 235 257 254 260 263 261 263 264 266 263 243 233 243 257 256 243
136 87 99 133 209 214 228 200 187 209 231 201 218 219 207 243 255 273 251 233 235 232 250 205 230 247 113 141 175 197 230 264 276 269 261 246 240 245 259 254 242 232 204 142
156 224 190 181 166 222 221 193 198 217 205 224 213 190 189 210 217 239 267 238 241 269 225 230 246 112 150 160 162 203 234 261 289 296 276 240 231 230 239 236 214 172 154 147
219 197 223 206 190 229 206 221 198 229 220 211 206 234 207 199 189 235 218 241 249 239 233 243 196 158 164 159 183 215 236 272 301 326 318 278 232 223 218 229 178 168 161 154
229 201 226 215 236 239 233 233 263 346 358 312 310 165 292 195 219 212 235 232 200 224 235 252 117 146 160 169 181 218 243 294 315 333 341 340 278 226 214 218 191 171 161 166
226 230 242 232 245 242 242 223 248 81 3 322 284 276 284 245 238 209 212 224 209 225 242 101 125 141 150 164 178 203 278 283 298 331 328 324 338 258 230 199 209 174 175 177
219 219 235 262 288 270 289 247 155 85 107 189 285 246 211 299 260 234 226 236 244 84 88 119 120 150 155 155 168 212 255 285 302 306 301 306 309 301 247 218 204 195 172 178